TimeEDT,TemperatureF,Dew PointF,Humidity,Sea Level PressureIn,VisibilityMPH,Wind Direction,Wind SpeedMPH,Gust SpeedMPH,PrecipitationIn,Events,Conditions,WindDirDegrees,DateUTC
12:56 AM,80.1,75.9,87,30.13,7.0,WNW,3.5,-,N/A,,Clear,290,2013-07-18 04:56:00
1:56 AM,80.1,75.0,85,30.12,9.0,NW,3.5,-,N/A,,Clear,310,2013-07-18 05:56:00
2:56 AM,78.1,73.9,87,30.11,7.0,WNW,5.8,-,N/A,,Clear,300,2013-07-18 06:56:00
3:56 AM,78.1,73.9,87,30.11,8.0,West,3.5,-,N/A,,Scattered Clouds,280,2013-07-18 07:56:00
4:56 AM,78.1,73.0,84,30.10,9.0,West,3.5,-,N/A,,Clear,260,2013-07-18 08:56:00
5:56 AM,77.0,73.0,88,30.10,9.0,NW,4.6,-,N/A,,Clear,320,2013-07-18 09:56:00
6:56 AM,78.1,72.0,81,30.11,9.0,NW,5.8,-,N/A,,Partly Cloudy,310,2013-07-18 10:56:00
7:56 AM,80.1,72.0,76,30.12,10.0,NW,5.8,-,N/A,,Partly Cloudy,310,2013-07-18 11:56:00
8:56 AM,84.9,73.9,69,30.13,10.0,Calm,Calm,-,N/A,,Partly Cloudy,0,2013-07-18 12:56:00
9:56 AM,89.1,73.0,59,30.13,10.0,NNE,4.6,-,N/A,,Clear,30,2013-07-18 13:56:00
10:56 AM,88.0,73.9,63,30.12,10.0,SE,3.5,-,N/A,,Clear,130,2013-07-18 14:56:00
11:56 AM,90.0,75.0,61,30.12,10.0,South,6.9,-,N/A,,Partly Cloudy,170,2013-07-18 15:56:00
12:56 PM,91.9,77.0,62,30.11,10.0,South,6.9,-,N/A,,Partly Cloudy,180,2013-07-18 16:56:00
1:56 PM,91.9,75.9,59,30.09,10.0,South,4.6,-,N/A,,Partly Cloudy,170,2013-07-18 17:56:00
2:56 PM,93.0,75.9,57,30.08,10.0,South,5.8,-,N/A,,Partly Cloudy,180,2013-07-18 18:56:00
3:56 PM,93.9,75.9,56,30.06,10.0,South,5.8,-,N/A,,Scattered Clouds,190,2013-07-18 19:56:00
4:56 PM,93.9,75.9,56,30.03,10.0,South,8.1,-,N/A,,Scattered Clouds,190,2013-07-18 20:56:00
5:56 PM,91.9,77.0,62,30.03,10.0,South,9.2,-,N/A,,Scattered Clouds,190,2013-07-18 21:56:00
6:56 PM,93.0,73.9,54,30.03,10.0,West,3.5,-,N/A,,Scattered Clouds,280,2013-07-18 22:56:00
7:56 PM,91.0,75.0,59,30.04,10.0,WNW,6.9,-,N/A,,Scattered Clouds,290,2013-07-18 23:56:00
8:56 PM,88.0,77.0,70,30.04,10.0,Calm,Calm,-,N/A,,Scattered Clouds,0,2013-07-19 00:56:00
9:56 PM,86.0,78.1,77,30.05,10.0,WNW,3.5,-,N/A,,Clear,290,2013-07-19 01:56:00
10:56 PM,87.1,75.9,69,30.04,9.0,WSW,6.9,-,N/A,,Clear,250,2013-07-19 02:56:00
11:56 PM,84.9,75.9,74,30.04,9.0,West,4.6,-,N/A,,Clear,270,2013-07-19 03:56:00